Location: Calberlah
(52.4230°N, 10.6240°E)
Time: 05:05:24
(UTC+00:00)

Spot 2 Rocket - Pass Details

Date: 19 May 2025
Orbit: 753 x 766 km, 98.3° (Epoch: 14 June)

Event Time Altitude Azimuth Distance (km) Brightness Sun altitude
Exits shadow 20:17:41 - 167° (SSE) 2,571 5.7 -8.1°
Reaches altitude 10° 20:18:25 10° 167° (SSE) 2,275 5.4 -8.2°
Maximum altitude 20:23:26 81° 254° (WSW) 772 3.6 -8.7°
Drops below altitude 10° 20:28:31 10° 343° (NNW) 2,298 7.2 -9.2°
Sets 20:30:50 0° 345° (NNW) 3,230 8.1 -9.4°
